User: anonymous   Login
Location: Norwich
(52.6280°N, 1.3030°E)
Time: 14:37:58
(UTC+00:00)
Language:

Meteor 1-22 Rocket - Orbit

View from above orbital plane
View from above orbital plane
View from above satellite
View from above satellite

Ground track
Ground track

The orbit data is extracted from the following two-line orbital elements,

1 08294U 75087B   16345.12670949  .00000091  00000-0  43630-4 0  9997
2 08294  81.2148 206.8665 0106133 214.6018 144.8216 14.08583715118231
Epoch (UTC): 10 December 2016 03:02:27
Eccentricity: 0.0106133
inclination: 81.2148°
perigee height: 787 km
apogee height: 941 km
right ascension of ascending node: 206.8665°
argument of perigee: 214.6018°
revolutions per day: 14.08583715
mean anomaly at epoch: 144.8216°
orbit number at epoch: 11823

The dashed part of the orbit path shows where the satellite is in the earth's shadow,  

DLR